sat.trackr.live / text

‹ back to catalog

STARLINK-4322

NORAD 53078 · 2022-077AM

PAYLOAD ACTIVE UNKNOWN

§ Identity

Operator
Country
US
Launch date
2022-07-11
Launch site
AFWTR
Launch vehicle
Mass (kg)
RCS (m²)

Purposes: comms

External: N2YO · Heavens-Above · Gunter

§ Orbital elements

Epoch: 2026-05-24T23:23:38.164128Z

Period
95.64 min
Inclination
97.4508°
Eccentricity
0.0000949
Mean motion
15.05657465 rev/d
Perigee alt
548.8 km
Apogee alt
550.1 km
Semi-major
6,927.6 km
B*
-1.3426e-5
RAAN
324.9838°
Arg perigee
138.4758°
Mean anomaly
221.6541°
Rev number
21,239

§ Raw data

STARLINK-43221 53078U 22077AM  26144.97474727 -.00000252  00000+0 -13426-4 0  99952 53078  97.4508 324.9838 0000949 138.4758 221.6541 15.05657465212395

JSON: /api/v1/satellites/53078 · /tle

For live sub-satellite position, see the globe view (requires WebGL).

§ Visibility from observer

Set your observer location to see the next 7 days of passes ≥ 10°. The values pass through the URL so the page stays shareable.

No JS? Fill the form by hand. The geolocation button needs JavaScript.